Weather History for Birmingham, AL

Change the Weather History Date:

Monday, March 25, 2013

  Actual Average Record
Temperature  
Mean Temperature 40 °F 57 °F  
Max Temperature 47 °F 69 °F 88 °F (1907)
Min Temperature 33 °F 46 °F 25 °F (1966)
Degree Days  
Heating Degree Days 25 8  
Month to date heating degree days 385 276  
Since 1 July heating degree days 2383 2466  
Cooling Degree Days 0 1  
Month to date cooling degree days 1 15  
Year to date cooling degree days 7 19  
Moisture  
Dew Point 23 °F    
Average Humidity 53    
Maximum Humidity 69    
Minimum Humidity 37    
Precipitation  
Precipitation 0.00 in 0.17 in 1.83 in (1916)
Month to date precipitation 4.91 4.26  
Year to date precipitation 19.50 13.63  
Snow  
Snow 0.00 in 0.00 in - ()
Month to date snowfall T 0.5  
Since 1 July snowfall 2.1 1.3  
Snow Depth 0.00 in    
Sea Level Pressure  
Sea Level Pressure 30.04 in    
Wind  
Wind Speed 15 mph (WNW)    
Max Wind Speed 28 mph    
Max Gust Speed 37 mph    
Visibility 10 miles    
Events      
T = Trace of Precipitation, MM = Missing Value Source: NWS Daily Summary

Daily Weather History Graph

Daily Weather History Graph

Search for Another Location

Airport:

Trip Planner

Search our weather history database for the weather conditions in past years. The results will help you decide how hot, cold, wet, or windy it might be!

Date:

Astronomy

Mar. 25, 2013 Rise Set
Actual Time 6:43 AM CDT 7:02 PM CDT
Civil Twilight 6:18 AM CDT 7:27 PM CDT
Nautical Twilight 5:49 AM CDT 7:56 PM CDT
Astronomical Twilight 5:20 AM CDT 8:26 PM CDT
Moon 5:36 PM CDT (3/25) 5:22 AM CDT (3/25)
Length of Visible Light 13h 08m
Length of Day
12h 18m
Waxing Gibbous, 96% of the Moon is Illuminated
Mar 25
Waxing Gibbous
Mar 27
Full
Apr 2
Last Quarter
Apr 10
New
Apr 18
First Quarter

Hourly Weather History & Observations

Time (CDT) Temp. Windchill Dew Point Humidity Pressure Visibility Wind Dir Wind Speed Gust Speed Precip Events Conditions
12:53 AM 39.9 °F 31.8 °F 26.1 °F 58% 29.88 in 10.0 mi WNW 15.0 mph 21.9 mph N/A   Overcast
1:53 AM 39.0 °F 29.6 °F 24.1 °F 55% 29.90 in 10.0 mi WNW 18.4 mph 31.1 mph N/A   Overcast
2:53 AM 37.9 °F 27.9 °F 23.0 °F 55% 29.91 in 10.0 mi WNW 19.6 mph 25.3 mph N/A   Overcast
3:53 AM 37.9 °F 28.2 °F 24.1 °F 57% 29.92 in 10.0 mi West 18.4 mph 27.6 mph N/A   Overcast
4:53 AM 37.0 °F 28.1 °F 24.1 °F 59% 29.93 in 10.0 mi West 15.0 mph 20.7 mph N/A   Overcast
5:53 AM 35.6 °F 28.6 °F 23.0 °F 60% 29.93 in 10.0 mi WNW 9.2 mph - N/A   Overcast
6:53 AM 35.1 °F 24.5 °F 21.0 °F 57% 29.96 in 10.0 mi WNW 18.4 mph 29.9 mph N/A   Scattered Clouds
7:53 AM 35.1 °F 25.5 °F 21.9 °F 59% 30.00 in 10.0 mi NW 15.0 mph 20.7 mph N/A   Overcast
8:53 AM 36.0 °F 28.0 °F 23.0 °F 59% 30.03 in 10.0 mi WNW 11.5 mph 19.6 mph N/A   Overcast
9:53 AM 37.0 °F 28.9 °F 25.0 °F 62% 30.04 in 10.0 mi WNW 12.7 mph - N/A   Overcast
10:53 AM 39.9 °F 31.1 °F 24.1 °F 53% 30.05 in 10.0 mi NW 17.3 mph 21.9 mph N/A   Scattered Clouds
11:53 AM 39.9 °F 31.1 °F 21.9 °F 49% 30.05 in 10.0 mi West 17.3 mph 25.3 mph N/A   Scattered Clouds
12:53 PM 43.0 °F 36.0 °F 21.9 °F 43% 30.04 in 10.0 mi WNW 13.8 mph 31.1 mph N/A   Partly Cloudy
1:53 PM 46.0 °F 40.2 °F 21.9 °F 39% 30.03 in 10.0 mi West 12.7 mph 23.0 mph N/A   Scattered Clouds
2:53 PM 46.0 °F 39.0 °F 21.9 °F 39% 30.03 in 10.0 mi WNW 17.3 mph 25.3 mph N/A   Scattered Clouds
3:38 PM 46.4 °F 41.1 °F 21.2 °F 37% 30.04 in 10.0 mi WNW 11.5 mph 25.3 mph N/A   Overcast
3:53 PM 45.0 °F 37.1 °F 21.9 °F 40% 30.05 in 10.0 mi WNW 19.6 mph 28.8 mph N/A   Mostly Cloudy
4:53 PM 44.1 °F 35.7 °F 21.0 °F 40% 30.07 in 10.0 mi West 20.7 mph 29.9 mph N/A   Mostly Cloudy
5:53 PM 42.1 °F 33.6 °F 19.9 °F 41% 30.10 in 10.0 mi NW 18.4 mph 24.2 mph N/A   Mostly Cloudy
6:53 PM 39.9 °F 31.1 °F 21.0 °F 47% 30.13 in 10.0 mi NW 17.3 mph - N/A   Scattered Clouds
7:53 PM 39.0 °F 30.6 °F 21.0 °F 49% 30.15 in 10.0 mi NW 15.0 mph 20.7 mph N/A   Mostly Cloudy
8:53 PM 37.9 °F 30.9 °F 21.9 °F 53% 30.17 in 10.0 mi NW 10.4 mph - N/A   Scattered Clouds
9:53 PM 36.0 °F 28.0 °F 23.0 °F 59% 30.19 in 10.0 mi WNW 11.5 mph 20.7 mph N/A   Partly Cloudy
10:53 PM 35.1 °F 31.0 °F 24.1 °F 64% 30.20 in 10.0 mi West 4.6 mph - N/A   Scattered Clouds
11:53 PM 34.0 °F 26.0 °F 24.1 °F 67% 30.20 in 10.0 mi West 10.4 mph - N/A   Partly Cloudy